Back to catalog

BREEZE-M DEB

AliveHEO
NORAD 38565·DEBRIS·🇷🇺 Russia

Launched Mar 14, 2008 from Baikonur Cosmodrome

Loading…

Next Passes (next 24 hours)

TLE

FreshSource: Space-Track

Epoch: Sep 14, 2026, 09:43 UTC

1 38565U 08011L   26257.40505714  .00000046  00000-0  97668-3 0  9994
2 38565  49.1651 208.0873 6476804 359.2486   0.0093  3.10981524186678

Track BREEZE-M DEB in real time with AllMySat

Download on the App Store